Airfield :
LOGIN :

Register | Disclaimer

   EN    FR    IT 

 










Legend :    VFR   Marginal VFR   IFR   Intensive IFR   Very Intensive IFR
Visi :
Ceiling :
>= 8 km
>= 3000ft
5 to 8 km
1000 to 3000 ft
1500m to 5 km
500 to 1000 ft
800 to 1500m
200 to 500 ft
< 800m
< 200 ft
Symbols :   Thunderstorms  Fog  Heavy snow  Heavy precipitations  Wind > 20 kt
SIGMETs :     Misc.  Thunderstorms  Icing  Turbulence  Mountain Waves  Volcanic Ashes







- Airport Elevation : 1187 ft


LIBV - Gioia del Colle Bari

CURRENT METAR :
  • 170655Z 33011KT CAVOK 27/11 Q1016 RMK SKC VIS MIN 9999 WIND THR32 36012KT WIND THR14 35012KT BLU

EXPIRED METARs :
  • 170555Z 33007KT CAVOK 24/11 Q1016 RMK SKC VIS MIN 9999 WIND THR32 36009KT WIND THR14 34009KT BLU
  • 170455Z 33004KT CAVOK 19/17 Q1016 RMK SKC VIS MIN 9999 WIND THR32 35003KT WIND THR14 33002KT BLU

TAF TAF LIBV
Valid from the 17 at 06:00 until the 17 at 15:00 UTC


170500Z 1706/1715 33005KT CAVOK
BECMG 1709/1711 36015KT 9999 SCT030
No reported NOTAMs for that airfield.



MET'MAP, your aeronautical weather chart ! - Copyright ORBIFLY December 2007 - Disclaimer

ORBIFLY MET'MAP TEAM :

Programming & Development : Alexandra Zaïnal
Concept & Development : Baudouin d'Aumeries
Co-Development & Prog : Marc-Olivier Méhu
Technical & hardware support : Manuel Goepfert

Contact : metmap@orbifly.com




SOURCES & CREDITS :

   NOAA